Regional Weather Roundup
Issued by NWS Cleveland, OH

Home | Current Version | Previous Version | Text Only | Print | Product List | Glossary Off
Versions: 1 2 3 4 5 6 7 8 9 10 11 12 13 14 15 16 17 18 19 20 21 22 23 24 25 26 27 28 29 30 31 32 33 34 35 36 37 38 39 40 41 42 43 44 45 46 47 48 49 50

000
ASUS41 KCLE 250110
RWRCLE
OHIO REGIONAL WEATHER ROUNDUP
NATIONAL WEATHER SERVICE CLEVELAND, OH
800 PM EST FRI NOV 24 2017

NOTE: "FAIR" INDICATES FEW OR NO CLOUDS BELOW 12,000 FEET WITH NO
SIGNIFICANT WEATHER AND/OR OBSTRUCTIONS TO VISIBILITY.

OHZ001>008-015>018-024>027-034-035-043-044-250200-
   NORTHWEST OHIO

CITY           SKY/WX    TMP DP  RH WIND       PRES   REMARKS
DEFIANCE       PTCLDY    49  32  52 S14G25    29.62F
FINDLAY        PTCLDY    49  29  46 S23       29.67F
TOLEDO EXPRESS CLOUDY    49  33  54 S14G23    29.62F
TOLEDO EXEC    PTCLDY    49  30  48 S21G28    29.64F
LIMA           PTCLDY    47  30  51 S15       29.68F
$$

OHZ009>014-019>023-028>033-038-089-250200-
   NORTHEAST OHIO

CITY           SKY/WX    TMP DP  RH WIND       PRES   REMARKS
CLE-HOPKINS    CLOUDY    50  25  37 S15G28    29.74F
CLE-LAKEFRONT  CLEAR     51  24  34 S18G26    29.70F
CUY CO. ARPT   MOCLDY    50  25  37 S13G22    29.72F
LORAIN-ELYRIA  CLEAR     47  24  40 S15       29.72F
ASHTABULA      CLEAR     46  24  42 S13       29.74F
AKRON-CANTON   PTCLDY    46  22  38 S14       29.76F
WOOSTER        CLEAR     44  24  45 S9        29.76F
MANSFIELD      CLEAR     46  27  47 S14       29.73F
YOUNGSTOWN     PTCLDY    46  23  40 S10       29.76F
$$

OHZ042-051>053-060>062-070>072-077>081-250200-
  SOUTHWEST OHIO

CITY           SKY/WX    TMP DP  RH WIND       PRES   REMARKS
CINC-COVINGTON CLOUDY    47  30  51 S9        29.80S
CINC-LUNKEN    MOCLDY    47  31  53 SW7       29.82S
HAMILTON       PTCLDY    50  29  44 VRB3      29.80F
DAYTON         CLOUDY    50  28  42 S18       29.76F
WRIGHT-PAT AFB MOCLDY    49  25  38 S6        29.76F
DAYTON GENERAL PTCLDY    49  27  42 S12       29.77F
WILMINGTON     CLEAR     44  30  57 S8        29.79F
$$

OHZ036-037-039>041-045>050-054>059-063>069-073>076-082>088-250200-
  CENTRAL AND SOUTHEAST OHIO

CITY           SKY/WX    TMP DP  RH WIND       PRES   REMARKS
COLUMBUS       CLOUDY    47  25  42 S5        29.79F
OSU AIRPORT    CLEAR     47  28  47 S9        29.78S
BOLTON FIELD   NOT AVBL
RICKENBACK AFB CLOUDY    43  26  51 S8        29.79F
NEWARK         CLEAR     47  23  38 S6        29.79F
MARION         CLEAR     47  28  47 S15       29.75F
LANCASTER      CLEAR     45  26  47 S7        29.80F
ZANESVILLE     CLEAR     45  23  42 S7        29.81S
NEW PHILLY     NOT AVBL
$$




USA.gov is the U.S. government's official web portal to all federal, state and local government web resources and services.